Location: Cran-Gévrier
(45.9039°N, 6.1012°E)
Time: 11:45:28
(UTC+00:00)

SJ 16-02 - Pass Details

Date: 09 February 2023
Orbit: 602 x 611 km, 75.0° (Epoch: 21 March)

Event Time Altitude Azimuth Distance (km) Brightness Sun altitude
Rises 19:02:57 0° 185° (S) 2,853 4.8 -23.1°
Reaches altitude 10° 19:05:13 10° 181° (S) 1,952 3.9 -23.5°
Enters shadow 19:05:50 14° 178° (S) 1,714 3.6 -23.6°
